EUTELSAT 9B

Last updated on May 20, 2019, 3:09 a.m. UTC

1 41310U 16005A   19139.80932132  .00000052  00000-0  00000+0 0  9998
2 41310   0.0918  85.4619 0002749 249.8936 202.1862  1.00273752 12185
UTC
Height (km)
Latitude
Longitude
Inclination
Orbital Period
UTC large
Height (km)
Speed (km/s)
/
Latitude / Longitude
Inclination (degrees)
Orbital Period (minutes)
Azimuth
Elevation
Range (km)
Doppler Factor
iOS Compass Heading
iOS Angle

Next 30 passes for location: Hong Kong

Rise time Rise Azimuth (degrees) Set time Set Azimuth (degrees) Duration Max altitude (degrees)

No matching passes for this satellites